Weather History for Walnut Ridge, AR

Change the Weather History Date:

Thursday, February 27, 2014

  Actual Average Record
Temperature  
Mean Temperature 32 °F -  
Max Temperature 44 °F 50 °F 71 °F (1999)
Min Temperature 21 °F 34 °F 17 °F (2002)
Degree Days  
Heating Degree Days 32    
Moisture  
Dew Point 14 °F    
Average Humidity 47    
Maximum Humidity 69    
Minimum Humidity 29    
Precipitation  
Precipitation 0.00 in - - ()
Sea Level Pressure  
Sea Level Pressure 30.07 in    
Wind  
Wind Speed 7 mph (SE)    
Max Wind Speed 15 mph    
Max Gust Speed 17 mph    
Visibility 10 miles    
Events      
Averages and records for this station are not official NWS values.
T = Trace of Precipitation, MM = Missing Value Source: NWS Daily Summary

Daily Weather History Graph

Daily Weather History Graph

Search for Another Location

Airport:

Trip Planner

Search our weather history database for the weather conditions in past years. The results will help you decide how hot, cold, wet, or windy it might be!

Date:

Astronomy

Feb. 27, 2014 Rise Set
Actual Time 6:36 AM CST 5:56 PM CST
Civil Twilight 6:10 AM CST 6:22 PM CST
Nautical Twilight 5:40 AM CST 6:52 PM CST
Astronomical Twilight 5:11 AM CST 7:22 PM CST
Moon 5:06 AM CST (2/27) 4:24 PM CST (2/27)
Length of Visible Light 12h 11m
Length of Day
11h 20m
Waning Crescent, 4% of the Moon is Illuminated
Feb 27
Waning Crescent
Mar 1
New
Mar 8
First Quarter
Mar 16
Full
Mar 23
Last Quarter

Hourly Weather History & Observations

Time (CST) Temp. Windchill Dew Point Humidity Pressure Visibility Wind Dir Wind Speed Gust Speed Precip Events Conditions
12:15 AM 24.8 °F 17.9 °F 8.6 °F 50% 30.08 in 10.0 mi WSW 5.8 mph - N/A   Clear
12:35 AM 24.8 °F 17.9 °F 6.8 °F 46% 30.08 in 10.0 mi SW 5.8 mph - N/A   Clear
12:55 AM 23.0 °F 15.8 °F 8.6 °F 54% 30.08 in 10.0 mi SW 5.8 mph - N/A   Clear
1:15 AM 21.2 °F 13.6 °F 6.8 °F 54% 30.08 in 10.0 mi SW 5.8 mph - N/A   Clear
1:35 AM 21.2 °F 14.9 °F 6.8 °F 54% 30.08 in 10.0 mi SW 4.6 mph - N/A   Clear
1:55 AM 23.0 °F 17.0 °F 6.8 °F 50% 30.08 in 10.0 mi SW 4.6 mph - N/A   Clear
2:15 AM 21.2 °F 12.6 °F 8.6 °F 58% 30.07 in 10.0 mi SSW 6.9 mph - N/A   Clear
2:35 AM 21.2 °F 12.6 °F 8.6 °F 58% 30.07 in 10.0 mi SW 6.9 mph - N/A   Clear
2:55 AM 21.2 °F 11.7 °F 8.6 °F 58% 30.06 in 10.0 mi SW 8.1 mph - N/A   Clear
3:15 AM 23.0 °F 13.1 °F 6.8 °F 50% 30.06 in 10.0 mi WSW 9.2 mph - N/A   Clear
3:35 AM 24.8 °F 16.1 °F 6.8 °F 46% 30.06 in 10.0 mi WSW 8.1 mph - N/A   Clear
3:55 AM 23.0 °F 13.9 °F 6.8 °F 50% 30.06 in 10.0 mi WSW 8.1 mph - N/A   Clear
4:15 AM 23.0 °F 14.7 °F 6.8 °F 50% 30.06 in 10.0 mi WSW 6.9 mph - N/A   Clear
4:35 AM 24.8 °F 16.1 °F 6.8 °F 46% 30.06 in 10.0 mi WSW 8.1 mph - N/A   Clear
4:55 AM 24.8 °F 16.1 °F 6.8 °F 46% 30.06 in 10.0 mi WSW 8.1 mph - N/A   Clear
5:15 AM 23.0 °F 14.7 °F 6.8 °F 50% 30.06 in 10.0 mi WSW 6.9 mph - N/A   Clear
5:35 AM 23.0 °F 13.9 °F 6.8 °F 50% 30.07 in 10.0 mi WSW 8.1 mph - N/A   Clear
5:55 AM 23.0 °F 13.9 °F 6.8 °F 50% 30.07 in 10.0 mi WSW 8.1 mph - N/A   Clear
6:15 AM 21.2 °F 13.6 °F 6.8 °F 54% 30.08 in 10.0 mi WSW 5.8 mph - N/A   Clear
6:35 AM 21.2 °F 13.6 °F 6.8 °F 54% 30.09 in 10.0 mi West 5.8 mph - N/A   Clear
6:55 AM 21.2 °F 13.6 °F 8.6 °F 58% 30.09 in 10.0 mi West 5.8 mph - N/A   Clear
7:15 AM 23.0 °F 15.8 °F 8.6 °F 54% 30.09 in 10.0 mi West 5.8 mph - N/A   Clear
7:35 AM 24.8 °F 16.1 °F 10.4 °F 54% 30.11 in 10.0 mi WNW 8.1 mph - N/A   Clear
7:55 AM 28.4 °F 18.5 °F 10.4 °F 47% 30.11 in 10.0 mi WNW 11.5 mph - N/A   Clear
8:15 AM 28.4 °F 17.0 °F 10.4 °F 47% 30.12 in 10.0 mi NW 15.0 mph - N/A   Clear
8:35 AM 30.2 °F 20.2 °F 12.2 °F 47% 30.13 in 10.0 mi NW 12.7 mph - N/A   Clear
8:55 AM 32.0 °F 22.5 °F 12.2 °F 44% 30.13 in 10.0 mi NNW 12.7 mph - N/A   Clear
9:15 AM 33.8 °F 24.3 °F 14.0 °F 44% 30.13 in 10.0 mi NNW 13.8 mph - N/A   Clear
9:35 AM 35.6 °F 28.0 °F 14.0 °F 41% 30.14 in 10.0 mi NNW 10.4 mph 17.3 mph N/A   Clear
9:55 AM 35.6 °F 28.0 °F 12.2 °F 38% 30.14 in 10.0 mi North 10.4 mph - N/A   Clear
10:15 AM 37.4 °F 29.3 °F 12.2 °F 36% 30.14 in 10.0 mi North 12.7 mph - N/A   Clear
10:35 AM 37.4 °F 30.3 °F 12.2 °F 36% 30.13 in 10.0 mi North 10.4 mph - N/A   Clear
10:55 AM 37.4 °F 31.4 °F 12.2 °F 36% 30.14 in 10.0 mi North 8.1 mph - N/A   Clear
11:15 AM 39.2 °F 33.6 °F 10.4 °F 31% 30.12 in 9.0 mi NNW 8.1 mph - N/A   Clear
11:35 AM 39.2 °F 34.2 °F 12.2 °F 33% 30.12 in 10.0 mi North 6.9 mph - N/A   Clear
11:55 AM 39.2 °F 37.0 °F 12.2 °F 33% 30.12 in 10.0 mi North 3.5 mph - N/A   Clear
12:15 PM 41.0 °F 37.1 °F 12.2 °F 31% 30.11 in 10.0 mi NNW 5.8 mph - N/A   Clear
12:35 PM 41.0 °F 39.0 °F 12.2 °F 31% 30.09 in 10.0 mi East 3.5 mph - N/A   Clear
12:55 PM 42.8 °F - 12.2 °F 29% 30.09 in 10.0 mi Calm Calm - N/A   Clear
1:15 PM 42.8 °F 38.0 °F 14.0 °F 31% 30.08 in 10.0 mi NE 8.1 mph - N/A   Clear
1:35 PM 42.8 °F 37.5 °F 15.8 °F 34% 30.07 in 10.0 mi ESE 9.2 mph - N/A   Clear
1:55 PM 42.8 °F 38.6 °F 15.8 °F 34% 30.06 in 10.0 mi ESE 6.9 mph - N/A   Clear
2:15 PM 44.6 °F 40.2 °F 15.8 °F 31% 30.06 in 10.0 mi SE 8.1 mph - N/A   Clear
2:35 PM 42.8 °F 38.6 °F 15.8 °F 34% 30.05 in 10.0 mi SE 6.9 mph - N/A   Clear
2:55 PM 44.6 °F - 15.8 °F 31% 30.05 in 10.0 mi Calm Calm - N/A   Clear
3:15 PM 44.6 °F 42.2 °F 17.6 °F 34% 30.05 in 10.0 mi ESE 4.6 mph - N/A   Clear
3:35 PM 44.6 °F 40.2 °F 17.6 °F 34% 30.04 in 10.0 mi SE 8.1 mph - N/A   Clear
3:55 PM 44.6 °F 39.2 °F 17.6 °F 34% 30.04 in 10.0 mi SE 10.4 mph - N/A   Clear
4:15 PM 44.6 °F 39.7 °F 17.6 °F 34% 30.03 in 10.0 mi ESE 9.2 mph - N/A   Clear
4:35 PM 42.8 °F 38.6 °F 17.6 °F 36% 30.03 in 10.0 mi SE 6.9 mph - N/A   Clear
4:55 PM 42.8 °F 38.0 °F 17.6 °F 36% 30.03 in 10.0 mi SE 8.1 mph - N/A   Clear
5:15 PM 42.8 °F 38.6 °F 15.8 °F 34% 30.03 in 10.0 mi SE 6.9 mph - N/A   Clear
5:35 PM 42.8 °F 38.6 °F 17.6 °F 36% 30.03 in 7.0 mi SE 6.9 mph - N/A   Clear
5:55 PM 39.2 °F 35.9 °F 17.6 °F 42% 30.03 in 5.0 mi SE 4.6 mph - N/A   Clear
6:15 PM 39.2 °F 35.9 °F 17.6 °F 42% 30.03 in 2.5 mi ESE 4.6 mph - N/A   Clear
6:35 PM 39.2 °F 35.9 °F 17.6 °F 42% 30.03 in 5.0 mi SE 4.6 mph - N/A   Clear
6:55 PM 37.4 °F 31.4 °F 21.2 °F 52% 30.03 in 5.0 mi ESE 8.1 mph - N/A   Clear
7:15 PM 35.6 °F 29.2 °F 19.4 °F 52% 30.04 in 9.0 mi ESE 8.1 mph - N/A   Clear
7:35 PM 33.8 °F 26.4 °F 21.2 °F 60% 30.04 in 10.0 mi East 9.2 mph - N/A   Clear
7:55 PM 33.8 °F 26.4 °F 21.2 °F 60% 30.04 in 10.0 mi East 9.2 mph - N/A   Clear
8:15 PM 33.8 °F 26.4 °F 21.2 °F 60% 30.05 in 10.0 mi East 9.2 mph - N/A   Clear
8:35 PM 32.0 °F 24.8 °F 21.2 °F 64% 30.06 in 10.0 mi East 8.1 mph - N/A   Clear
8:55 PM 32.0 °F 23.6 °F 21.2 °F 64% 30.06 in 10.0 mi East 10.4 mph - N/A   Clear
9:15 PM 32.0 °F 23.6 °F 19.4 °F 60% 30.06 in 10.0 mi ENE 10.4 mph - N/A   Clear
9:35 PM 30.2 °F 21.9 °F 19.4 °F 64% 30.07 in 10.0 mi ENE 9.2 mph - N/A   Clear
9:55 PM 30.2 °F 21.9 °F 21.2 °F 69% 30.06 in 10.0 mi ENE 9.2 mph - N/A   Clear
10:15 PM 30.2 °F 21.9 °F 21.2 °F 69% 30.06 in 10.0 mi NE 9.2 mph - N/A   Clear
10:35 PM 30.2 °F 21.9 °F 21.2 °F 69% 30.06 in 10.0 mi NE 9.2 mph - N/A   Clear
10:55 PM 30.2 °F 20.8 °F 21.2 °F 69% 30.05 in 10.0 mi ENE 11.5 mph - N/A   Clear
11:15 PM 32.0 °F 23.6 °F 19.4 °F 60% 30.05 in 10.0 mi ENE 10.4 mph - N/A   Clear
11:35 PM 30.2 °F 21.3 °F 19.4 °F 64% 30.05 in 10.0 mi ENE 10.4 mph - N/A   Clear
11:55 PM 30.2 °F 21.9 °F 17.6 °F 60% 30.04 in 10.0 mi ENE 9.2 mph - N/A   Clear